This demonstration page uses our WeatherBlox Daily Observations layout. Learn more.

Left ArrowRight Arrow

39.92423, -83.80882

Hourly Observations for July 29, 2019

Temp ( °F °C ) Dew Point ( °F °C ) Humidity (%) Winds ( mph kmh ) Pressure ( in mb ) Visibility ( mi km ) Precip ( " mm )
12:56 am 00:56 Clear 71 21.7 65 18.3 81 81 S 5 7 30.06 1018 10 16.0934 N/A
1:56 am 01:56 Clear 69 20.6 65 18.3 87 87 N N/A 30.06 1018 10 16.0934 N/A
2:56 am 02:56 Clear 69 20.6 66 18.9 90 90 SSW 3 6 30.06 1018 10 16.0934 N/A
3:56 am 03:56 Clear 69 20.6 66 18.9 90 90 SSW 5 7 30.04 1017 10 16.0934 N/A
4:56 am 04:56 Clear 69 20.6 65 18.3 87 87 SSW 6 9 30.04 1017 10 16.0934 N/A
5:56 am 05:56 Clear 68 20 66 18.9 93 93 SSW 3 6 30.04 1017 10 16.0934 N/A
6:56 am 06:56 Sunny 68 20 66 18.9 93 93 SSW 3 6 30.04 1017 10 16.0934 N/A
7:56 am 07:56 Sunny 71 21.7 68 20 90 90 SSW 5 7 30.05 1018 10 16.0934 N/A
8:56 am 08:56 Partly Cloudy 74 23.3 69 20.6 85 85 SSW 8 13 30.05 1018 10 16.0934 N/A
9:56 am 09:56 Sunny 78 25.6 70 21.1 76 76 SW 10 17 30.04 1017 10 16.0934 N/A
10:56 am 10:56 Sunny 82 27.8 71 21.7 69 69 SSW 7 11 30.03 1017 10 16.0934 N/A
11:56 am 11:56 Mostly Cloudy 85 29.4 70 21.1 61 61 SW 13 20 30.01 1016 10 16.0934 N/A
12:56 pm 12:56 Cloudy 82 27.8 68 20 63 63 WSW 14 22 30 1016 10 16.0934 N/A
1:56 pm 13:56 Partly Cloudy 87 30.6 66 18.9 50 50 SW 17 28 29.97 1015 10 16.0934 N/A
2:56 pm 14:56 Mostly Sunny 86 30 67 19.4 53 53 SW 14 22 29.96 1015 10 16.0934 N/A
3:56 pm 15:56 Mostly Cloudy 86 30 67 19.4 53 53 SW 12 19 29.95 1014 10 16.0934 N/A
4:56 pm 16:56 Mostly Sunny 85 29.4 64 17.8 50 50 SSW 9 15 29.93 1014 10 16.0934 N/A
5:56 pm 17:56 Mostly Sunny 84 28.9 65 18.3 53 53 SSW 12 19 29.93 1014 10 16.0934 N/A
6:56 pm 18:56 Mostly Sunny 83 28.3 66 18.9 57 57 SSW 6 9 29.93 1014 10 16.0934 N/A
7:56 pm 19:56 Mostly Sunny 81 27.2 66 18.9 61 61 SSW 7 11 29.93 1014 10 16.0934 N/A
8:28 pm 20:28 Cloudy 75 24 66 19 74 74 W 12 19 29.93 1013 10 16.0934 N/A
8:56 pm 20:56 Cloudy with Light Rain 73 22.8 67 19.4 81 81 W 8 13 29.95 1014 10 16.0934 0.001 0.001
9:56 pm 21:56 Cloudy 73 22.8 67 19.4 81 81 SW 7 11 29.97 1015 10 16.0934 0.001 0.001
10:56 pm 22:56 Partly Cloudy 71 21.7 68 20 90 90 WSW 6 9 29.96 1014 10 16.0934 0.001 0.001
11:56 pm 23:56 Partly Cloudy 70 21.1 68 20 93 93 SSW 6 9 29.96 1015 10 16.0934 0.001 0.001

Powered by AerisWeather